[[{"header":{"parameterUnit":"m.s-1","parameterCategory":1,"la1":30.2991,"la2":30.254,"lo1":-89.0895,"lo2":-89.0444,"dy":0.0017,"dx":0.0017,"nx":28,"ny":28,"refTime":"2024-12-03T03:00:00:Z","depth":0,"parameterNumber":2,"parameterNumberName":"U-component_of_WINDS"},"data":[0,0,0,0,0,0,0,0,0,0,0,0,0,0,0,0,0,0,0,0,0,0,0,0,0,0,0,0,0,0,0,0,0,0,0,0,0,0,0,0,0,0,0,0,0,0,0,0,0,0,0,0,0,0,0,0,0,0,-1.9886,-1.9886,0,-1.9877,-1.9877,-1.9877,-1.9803,-1.9801,-1.9799,-1.9798,-1.9789,-1.9791,-1.9792,0,0,0,0,0,0,0,0,0,0,0,0,0,-1.9842,-1.9844,-1.9886,-1.9886,-1.9886,-1.9877,-1.9877,-1.9877,-1.9803,-1.9801,-1.9799,-1.9797,-1.9789,-1.979,-1.9792,0,0,0,0,0,0,0,0,0,0,0,0,0,-1.985,-1.9844,-1.9887,-1.9848,-1.9845,-1.9877,-1.9877,-1.9877,-1.9804,-1.9801,-1.9798,-1.9796,-1.9788,-1.979,-1.9793,-1.9861,0,0,-1.9799,-1.98,0,0,0,0,0,0,0,0,-1.985,-1.9852,-1.9854,-1.9851,-1.9847,-1.9838,-1.9858,-1.9871,-1.9804,-1.9819,-1.9797,-1.9794,-1.9808,-1.9808,-1.9812,-1.986,-1.986,-1.9799,-1.9801,-1.9802,-1.9802,0,0,0,0,0,0,0,-1.9849,-1.9852,-1.9883,-1.9854,-1.985,-1.9832,-1.983,-1.986,-1.9829,-1.9818,-1.9812,-1.9812,-1.9805,-1.9811,-1.9812,-1.986,-1.9799,-1.9801,-1.9803,-1.9804,-1.9964,-1.9967,0,0,0,0,0,0,-1.9854,-1.9852,-1.9883,-1.9882,-1.9842,-1.9835,-1.9833,-1.9844,-1.9829,-1.9824,-1.9815,-1.9809,-1.9808,-1.9809,-1.9811,-1.9891,-1.9802,-1.9804,-1.9805,-1.9961,-1.9965,-1.9968,0,0,0,0,0,0,-1.9853,-1.9857,-1.9883,-1.9866,-1.9868,-1.9839,-1.9852,-1.9845,-1.985,-1.9826,-1.982,-1.9826,-1.9806,-1.9808,-1.9849,-1.989,-1.9805,-1.9807,-1.9958,-1.9962,-1.9966,-2.0051,0,0,0,0,0,0,-1.9852,-1.9858,-1.9883,-1.9867,-1.9869,-1.9921,-1.9854,-1.9847,-1.9854,-1.9846,-1.9835,-1.983,-1.9804,-1.9846,-1.9851,-1.9891,-1.9809,-1.9954,-1.996,-1.9965,-2.0045,-2.0058,-2.0069,0,0,0,0,0,-1.9851,-1.9907,-1.9885,-1.9889,-1.99,-1.9924,-1.9925,-1.9893,-1.9858,-1.9883,-1.9868,-1.9831,-1.9884,-1.9851,-1.9856,-1.9898,-1.9951,-1.9958,-1.9964,-2.0039,-2.0055,-2.0069,0,0,0,0,0,0,-1.993,-1.9905,-1.9879,-1.9932,-1.9931,-1.9911,-1.9943,-1.9911,-1.992,-1.9913,-1.9874,-1.9872,-1.9919,-1.9912,-1.9875,-1.9963,-1.9911,-1.9919,-1.9966,-1.9982,-1.9994,-1.9995,-1.981,0,0,0,0,0,-1.9953,-1.9974,-1.9951,-2.0,-2.0001,-1.9972,-1.9981,-1.9957,-1.9954,-1.9953,-1.994,-1.994,-1.9956,-1.9968,-1.9982,-2.0042,-2.004,-2.0073,-2.0086,-2.0096,-2.0104,-2.0137,-2.0152,-1.999,-1.999,-1.9989,0,0,-2.0002,-1.9991,-2.0007,-2.0016,-2.0012,-2.0035,-1.9972,-1.9999,-2.0017,-1.9957,-1.9996,-1.9986,-1.9983,-2.0034,-2.0056,-2.003,-2.0148,-2.0104,-2.0113,-2.0115,-2.0145,-2.0161,-2.0175,-1.9994,-1.9993,-1.9993,0,0,-2.0104,-2.0097,-2.0137,-2.0134,-2.0129,-2.0109,-2.0119,-2.0105,-2.0096,-2.0134,-2.009,-2.011,-2.0139,-2.0139,-2.0142,-2.0243,-2.021,-2.0249,-2.0314,-2.0346,-2.0359,-2.0371,-2.0408,-2.0422,-2.0256,-2.0256,-2.0257,0,-2.0165,-2.0199,-2.0162,-2.0192,-2.0198,-2.0145,-2.0186,-2.0185,-2.0185,-2.019,-2.016,-2.0196,-2.0189,-2.0241,-2.0266,-2.0269,-2.028,-2.0251,-2.036,-2.0371,-2.0381,-2.0417,-2.0431,-2.0261,-2.0261,-2.026,-2.026,0,-2.0276,-2.0299,-2.0332,-2.0334,-2.0343,-2.0378,-2.0348,-2.0361,-2.0336,-2.032,-2.0359,-2.0349,-2.0361,-2.0371,-2.0346,-2.0419,-2.0403,-2.0367,-2.0315,-2.0402,-2.0435,-2.0448,-2.0268,-2.0267,-2.0265,-2.0264,0,0,-2.0428,-2.0408,-2.0421,-2.0421,-2.0411,-2.0429,-2.0462,-2.0473,-2.0486,-2.0487,-2.0515,-2.0541,-2.0508,-2.0512,-2.0487,-2.0515,-2.0597,-2.0476,-2.0475,-2.05,-2.0679,-2.0707,-2.0724,-2.0574,-2.0577,-2.0579,-2.068,0,-2.0527,-2.0583,-2.0551,-2.0612,-2.0634,-2.0583,-2.0612,-2.0609,-2.0595,-2.0612,-2.0596,-2.0615,-2.0569,-2.0572,-2.0597,-2.0582,-2.0633,-2.0574,-2.0601,-2.0603,-2.0606,-2.074,-2.0771,-2.0867,-2.0692,-2.0694,-2.0696,0,-2.0651,-2.0657,-2.072,-2.0706,-2.0714,-2.0741,-2.0749,-2.0765,-2.0761,-2.0749,-2.0753,-2.0721,-2.0753,-2.07,-2.0745,-2.0705,-2.0714,-2.0709,-2.0711,-2.0715,-2.0656,-2.0749,-2.0896,-2.0912,-2.0715,-2.0714,-2.0712,0,-2.0758,-2.0782,-2.0824,-2.0825,-2.0809,-2.083,-2.0824,-2.0817,-2.0826,-2.0832,-2.0838,-2.0848,-2.0854,-2.0863,-2.0835,-2.0798,-2.0884,-2.0828,-2.0876,-2.0877,-2.0898,-2.0898,-2.1051,-2.0901,-2.09,-2.09,-2.09,0,-2.0873,-2.0915,-2.0872,-2.0898,-2.0942,-2.0904,-2.095,-2.0939,-2.0933,-2.0956,-2.0912,-2.0935,-2.0895,-2.0914,-2.0892,-2.0933,-2.0936,-2.0927,-2.0922,-2.0933,-2.0934,-2.094,-2.0933,-2.0904,-2.0903,-2.0902,-2.0902,0,-2.1002,-2.0975,-2.1017,-2.0998,-2.0994,-2.1028,-2.1013,-2.1036,-2.1018,-2.1048,-2.1053,-2.1025,-2.1045,-2.1017,-2.1034,-2.1019,-2.1076,-2.1059,-2.1078,-2.1074,-2.1124,-2.1121,-2.1289,-2.1309,-2.1144,-2.1145,-2.1147,0,-2.1079,-2.1109,-2.1094,-2.1106,-2.1103,-2.1123,-2.1131,-2.1095,-2.1106,-2.1104,-2.1128,-2.1144,-2.1155,-2.1189,-2.1171,-2.1184,-2.1168,-2.1226,-2.117,-2.118,-2.1171,-2.1171,-2.1175,-2.1238,-2.124,-2.1242,-2.1243,0,-2.1218,-2.1203,-2.1217,-2.1226,-2.1238,-2.1243,-2.1246,-2.1258,-2.122,-2.1235,-2.1255,-2.1263,-2.128,-2.1297,-2.1305,-2.13,-2.1267,-2.126,-2.1272,-2.1286,-2.1296,-2.1293,-2.1112,-2.1257,-2.1256,-2.1255,-2.1254,-2.1253,-2.1324,-2.1349,-2.1343,-2.136,-2.1358,-2.1361,-2.1382,-2.1367,-2.1382,-2.1394,-2.1371,-2.1397,-2.1392,-2.1399,-2.1398,-2.1418,-2.1393,-2.141,-2.1415,-2.142,-2.1429,-2.1291,-2.1419,-2.1418,-2.1418,-2.1417,-2.1417,0,-2.1463,-2.1456,-2.1472,-2.1477,-2.1491,-2.1456,-2.1457,-2.1471,-2.1494,-2.1492,-2.1504,-2.1527,-2.1543,-2.1526,-2.1539,-2.1558,-2.1543,-2.1563,-2.1563,-2.1562,-2.1449,-2.1439,-2.1575,-2.1575,-2.1575,-2.1575,-2.1575,-2.1575,-2.1537,-2.1579,-2.1563,-2.1603,-2.1595,-2.162,-2.1624,-2.1627,-2.1625,-2.1653,-2.1666,-2.1654,-2.1646,-2.1658,-2.1672,-2.1667,-2.1675,-2.1701,-2.169,-2.1586,-2.157,-2.1555,-2.1545,-2.1702,-2.1702,-2.1802,-2.1803,-2.1803]},{"header":{"parameterUnit":"m.s-1","parameterCategory":1,"la1":30.2991,"la2":30.254,"lo1":-89.0895,"lo2":-89.0444,"dy":0.0017,"dx":0.0017,"nx":28,"ny":28,"refTime":"2024-12-03T03:00:00:Z","depth":0,"parameterNumber":3,"parameterNumberName":"V-component_of_WINDS"},"data":[0,0,0,0,0,0,0,0,0,0,0,0,0,0,0,0,0,0,0,0,0,0,0,0,0,0,0,0,0,0,0,0,0,0,0,0,0,0,0,0,0,0,0,0,0,0,0,0,0,0,0,0,0,0,0,0,0,0,-3.3986,-3.3987,0,-3.4031,-3.4031,-3.4032,-3.4013,-3.4012,-3.4011,-3.401,-3.4052,-3.4054,-3.4056,0,0,0,0,0,0,0,0,0,0,0,0,0,-3.3882,-3.3884,-3.3986,-3.3987,-3.3988,-3.4031,-3.4031,-3.4032,-3.4013,-3.4012,-3.4011,-3.4009,-3.4051,-3.4054,-3.4056,0,0,0,0,0,0,0,0,0,0,0,0,0,-3.3927,-3.3885,-3.3986,-3.3983,-3.3984,-3.4031,-3.4031,-3.4032,-3.4013,-3.4012,-3.401,-3.4009,-3.405,-3.4053,-3.4056,-3.4108,0,0,-3.4066,-3.4067,0,0,0,0,0,0,0,0,-3.3925,-3.3931,-3.3983,-3.3984,-3.3984,-3.4015,-3.401,-3.4057,-3.4014,-3.4002,-3.401,-3.4008,-3.4041,-3.4044,-3.4056,-3.411,-3.4111,-3.4066,-3.4068,-3.407,-3.4071,0,0,0,0,0,0,0,-3.3922,-3.3929,-3.4004,-3.3984,-3.3985,-3.3979,-3.3984,-3.4019,-3.4029,-3.4003,-3.4002,-3.4007,-3.404,-3.4053,-3.4057,-3.4112,-3.4066,-3.4069,-3.4071,-3.4072,-3.421,-3.4212,0,0,0,0,0,0,-3.3919,-3.3926,-3.4002,-3.4005,-3.395,-3.3982,-3.3987,-3.4006,-3.4029,-3.4031,-3.4009,-3.4006,-3.4048,-3.4053,-3.4058,-3.4121,-3.407,-3.4073,-3.4074,-3.4209,-3.4211,-3.4213,0,0,0,0,0,0,-3.3917,-3.3926,-3.4001,-3.3966,-3.3975,-3.3986,-3.4007,-3.4008,-3.4021,-3.4034,-3.4035,-3.402,-3.4047,-3.4054,-3.4096,-3.4122,-3.4074,-3.4077,-3.4207,-3.4209,-3.4212,-3.4246,0,0,0,0,0,0,-3.3914,-3.3925,-3.3946,-3.3966,-3.3977,-3.4039,-3.4009,-3.401,-3.4027,-3.4024,-3.4044,-3.4046,-3.4047,-3.4091,-3.4099,-3.4125,-3.4079,-3.4204,-3.4208,-3.4211,-3.4242,-3.4249,-3.4255,0,0,0,0,0,-3.391,-3.3952,-3.3947,-3.3956,-3.4002,-3.404,-3.4046,-3.4047,-3.4029,-3.4049,-3.4057,-3.4046,-3.4118,-3.4096,-3.4104,-3.4132,-3.4203,-3.4207,-3.4211,-3.4239,-3.4248,-3.4255,0,0,0,0,0,0,-3.3933,-3.3955,-3.3949,-3.3999,-3.4018,-3.4037,-3.4063,-3.4055,-3.4079,-3.4075,-3.4074,-3.4078,-3.4122,-3.4131,-3.4106,-3.4183,-3.4157,-3.4163,-3.4176,-3.4184,-3.419,-3.4188,-3.4082,0,0,0,0,0,-3.3944,-3.3974,-3.3991,-3.4034,-3.4044,-3.4052,-3.4068,-3.4067,-3.4086,-3.4093,-3.4105,-3.4123,-3.4149,-3.4167,-3.4192,-3.4243,-3.4247,-3.4266,-3.4272,-3.4277,-3.4283,-3.4311,-3.432,-3.4226,-3.4226,-3.4226,0,0,-3.3967,-3.3983,-3.4001,-3.4039,-3.4053,-3.4084,-3.4058,-3.4091,-3.4114,-3.4098,-3.4139,-3.4148,-3.4168,-3.4215,-3.4236,-3.4223,-3.431,-3.4283,-3.4287,-3.4289,-3.4316,-3.4325,-3.4333,-3.4229,-3.4228,-3.4228,0,0,-3.4025,-3.4039,-3.4077,-3.4093,-3.4116,-3.412,-3.4129,-3.415,-3.4155,-3.4197,-3.4186,-3.4212,-3.4257,-3.4273,-3.4286,-3.435,-3.434,-3.4358,-3.4391,-3.4419,-3.4427,-3.4433,-3.4457,-3.4465,-3.4363,-3.4363,-3.4363,0,-3.405,-3.4097,-3.4097,-3.4132,-3.4149,-3.4137,-3.4175,-3.4189,-3.4218,-3.423,-3.4215,-3.4274,-3.4286,-3.4337,-3.4353,-3.4363,-3.4374,-3.4356,-3.4426,-3.4432,-3.4438,-3.4461,-3.447,-3.4365,-3.4365,-3.4365,-3.4364,0,-3.4127,-3.416,-3.4187,-3.4218,-3.4237,-3.4273,-3.4278,-3.4298,-3.4295,-3.4301,-3.4343,-3.4358,-3.4386,-3.4398,-3.4395,-3.4448,-3.444,-3.4426,-3.44,-3.4449,-3.4471,-3.4479,-3.4368,-3.4367,-3.4367,-3.4366,0,0,-3.4202,-3.4232,-3.4243,-3.4257,-3.4281,-3.4306,-3.434,-3.437,-3.4387,-3.4407,-3.4437,-3.4476,-3.4463,-3.4478,-3.4476,-3.45,-3.4551,-3.4483,-3.4483,-3.4496,-3.4612,-3.4624,-3.4634,-3.4544,-3.4546,-3.4547,-3.4611,0,-3.4262,-3.4326,-3.4327,-3.4385,-3.4415,-3.4404,-3.4435,-3.4453,-3.4459,-3.4485,-3.4491,-3.452,-3.45,-3.4509,-3.4532,-3.454,-3.4575,-3.4535,-3.4572,-3.4573,-3.4569,-3.4645,-3.4658,-3.4718,-3.4619,-3.4621,-3.4622,0,-3.4342,-3.4367,-3.4428,-3.4449,-3.4462,-3.4489,-3.4517,-3.4541,-3.4561,-3.4564,-3.4581,-3.4576,-3.4611,-3.4583,-3.4631,-3.4605,-3.4619,-3.4625,-3.4628,-3.4632,-3.4602,-3.4653,-3.4737,-3.4746,-3.4635,-3.4634,-3.4633,0,-3.4392,-3.444,-3.4484,-3.4496,-3.4521,-3.454,-3.4551,-3.457,-3.4587,-3.461,-3.4622,-3.4648,-3.4662,-3.4682,-3.4684,-3.4663,-3.4733,-3.4705,-3.4736,-3.4736,-3.4753,-3.4752,-3.4841,-3.476,-3.4759,-3.4759,-3.4759,0,-3.4461,-3.4499,-3.4507,-3.4533,-3.4576,-3.4576,-3.4618,-3.4627,-3.4643,-3.4671,-3.4662,-3.4688,-3.4687,-3.4714,-3.4715,-3.4755,-3.4761,-3.4764,-3.4765,-3.4766,-3.4766,-3.4777,-3.4773,-3.4762,-3.4761,-3.4761,-3.476,0,-3.4524,-3.4531,-3.4578,-3.4598,-3.4604,-3.4634,-3.4651,-3.4676,-3.4681,-3.4717,-3.4725,-3.4733,-3.4764,-3.4767,-3.4802,-3.4802,-3.4852,-3.4846,-3.4846,-3.4845,-3.4877,-3.4875,-3.4978,-3.4992,-3.49,-3.4901,-3.4901,0,-3.4568,-3.4598,-3.4622,-3.464,-3.4653,-3.4683,-3.4701,-3.4702,-3.4721,-3.4746,-3.4768,-3.4798,-3.4822,-3.4871,-3.488,-3.4906,-3.4903,-3.4937,-3.4907,-3.4908,-3.4905,-3.4904,-3.4907,-3.4943,-3.4944,-3.4945,-3.4946,0,-3.4647,-3.4649,-3.4676,-3.4705,-3.4728,-3.475,-3.4771,-3.4787,-3.479,-3.4812,-3.4844,-3.4863,-3.4899,-3.4929,-3.4955,-3.4965,-3.4956,-3.4955,-3.4964,-3.4967,-3.4966,-3.4968,-3.4863,-3.4953,-3.4952,-3.4952,-3.4951,-3.4951,-3.4703,-3.4729,-3.475,-3.4781,-3.4798,-3.4818,-3.4843,-3.4852,-3.4879,-3.491,-3.4908,-3.4943,-3.4962,-3.4996,-3.5008,-3.5035,-3.5024,-3.5036,-3.504,-3.5043,-3.5048,-3.496,-3.504,-3.504,-3.5039,-3.5039,-3.5039,0,-3.4782,-3.4795,-3.4824,-3.4855,-3.4879,-3.4869,-3.4892,-3.4913,-3.4944,-3.4963,-3.4987,-3.5024,-3.5053,-3.5064,-3.5092,-3.5111,-3.5108,-3.5119,-3.5118,-3.5121,-3.5055,-3.5046,-3.5121,-3.5121,-3.5121,-3.5121,-3.5121,-3.5121,-3.4826,-3.4871,-3.4875,-3.4927,-3.4939,-3.4975,-3.4989,-3.5007,-3.5022,-3.5064,-3.5089,-3.5096,-3.5112,-3.5141,-3.5166,-3.5169,-3.518,-3.5193,-3.5194,-3.5133,-3.5125,-3.5117,-3.5108,-3.5195,-3.5195,-3.5257,-3.5257,-3.5258]}]]